"Time","Value","Approval","myLocation"
"2023-04-17 00:00",9.333,"Working","OW060"
"2023-04-17 01:00",9.332,"Working","OW060"
"2023-04-17 02:00",9.333,"Working","OW060"
"2023-04-17 03:00",9.333,"Working","OW060"
"2023-04-17 04:00",9.333,"Working","OW060"
"2023-04-17 05:00",9.334,"Working","OW060"
"2023-04-17 06:00",9.334,"Working","OW060"
"2023-04-17 07:00",9.334,"Working","OW060"
"2023-04-17 08:00",9.334,"Working","OW060"
"2023-04-17 09:00",9.335,"Working","OW060"
"2023-04-17 10:00",9.334,"Working","OW060"
"2023-04-17 11:00",9.334,"Working","OW060"
"2023-04-17 12:00",9.333,"Working","OW060"
"2023-04-17 13:00",9.334,"Working","OW060"
"2023-04-17 14:00",9.333,"Working","OW060"
"2023-04-17 15:00",9.333,"Working","OW060"
"2023-04-17 16:00",9.333,"Working","OW060"
"2023-04-17 17:00",9.333,"Working","OW060"
"2023-04-17 18:00",9.332,"Working","OW060"
"2023-04-17 19:00",9.332,"Working","OW060"
"2023-04-17 20:00",9.331,"Working","OW060"
"2023-04-17 21:00",9.331,"Working","OW060"
"2023-04-17 22:00",9.33,"Working","OW060"
"2023-04-17 23:00",9.33,"Working","OW060"
"2023-04-18 00:00",9.33,"Working","OW060"
"2023-04-18 01:00",9.33,"Working","OW060"
"2023-04-18 02:00",9.33,"Working","OW060"
"2023-04-18 03:00",9.329,"Working","OW060"
"2023-04-18 04:00",9.329,"Working","OW060"
"2023-04-18 05:00",9.328,"Working","OW060"
"2023-04-18 06:00",9.328,"Working","OW060"
"2023-04-18 07:00",9.328,"Working","OW060"
"2023-04-18 08:00",9.328,"Working","OW060"
"2023-04-18 09:00",9.328,"Working","OW060"
"2023-04-18 10:00",9.327,"Working","OW060"
"2023-04-18 11:00",9.328,"Working","OW060"
"2023-04-18 12:00",9.327,"Working","OW060"
"2023-04-18 13:00",9.327,"Working","OW060"
"2023-04-18 14:00",9.328,"Working","OW060"
"2023-04-18 15:00",9.328,"Working","OW060"
"2023-04-18 16:00",9.329,"Working","OW060"
"2023-04-18 17:00",9.329,"Working","OW060"
"2023-04-18 18:00",9.33,"Working","OW060"
"2023-04-18 19:00",9.33,"Working","OW060"
"2023-04-18 20:00",9.33,"Working","OW060"
"2023-04-18 21:00",9.331,"Working","OW060"
"2023-04-18 22:00",9.331,"Working","OW060"
"2023-04-18 23:00",9.332,"Working","OW060"
"2023-04-19 00:00",9.332,"Working","OW060"
"2023-04-19 01:00",9.332,"Working","OW060"
"2023-04-19 02:00",9.333,"Working","OW060"
"2023-04-19 03:00",9.334,"Working","OW060"
"2023-04-19 04:00",9.334,"Working","OW060"
"2023-04-19 05:00",9.334,"Working","OW060"
"2023-04-19 06:00",9.335,"Working","OW060"
"2023-04-19 07:00",9.335,"Working","OW060"
"2023-04-19 08:00",9.335,"Working","OW060"
"2023-04-19 09:00",9.335,"Working","OW060"
"2023-04-19 10:00",9.335,"Working","OW060"
"2023-04-19 11:00",9.336,"Working","OW060"
"2023-04-19 12:00",9.337,"Working","OW060"
"2023-04-19 13:00",9.336,"Working","OW060"
"2023-04-19 14:00",9.336,"Working","OW060"
"2023-04-19 15:00",9.337,"Working","OW060"
"2023-04-19 16:00",9.338,"Working","OW060"
"2023-04-19 17:00",9.338,"Working","OW060"
"2023-04-19 18:00",9.339,"Working","OW060"
"2023-04-19 19:00",9.339,"Working","OW060"
"2023-04-19 20:00",9.34,"Working","OW060"
"2023-04-19 21:00",9.341,"Working","OW060"
"2023-04-19 22:00",9.341,"Working","OW060"
"2023-04-19 23:00",9.342,"Working","OW060"
"2023-04-20 00:00",9.341,"Working","OW060"
"2023-04-20 01:00",9.342,"Working","OW060"
"2023-04-20 02:00",9.343,"Working","OW060"
"2023-04-20 03:00",9.343,"Working","OW060"
"2023-04-20 04:00",9.343,"Working","OW060"
"2023-04-20 05:00",9.345,"Working","OW060"
"2023-04-20 06:00",9.345,"Working","OW060"
"2023-04-20 07:00",9.345,"Working","OW060"
"2023-04-20 08:00",9.346,"Working","OW060"
"2023-04-20 09:00",9.346,"Working","OW060"
"2023-04-20 10:00",9.347,"Working","OW060"
"2023-04-20 11:00",9.347,"Working","OW060"
"2023-04-20 12:00",9.348,"Working","OW060"
"2023-04-20 13:00",9.348,"Working","OW060"
"2023-04-20 14:00",9.348,"Working","OW060"
"2023-04-20 15:00",9.348,"Working","OW060"
"2023-04-20 16:00",9.348,"Working","OW060"
"2023-04-20 17:00",9.348,"Working","OW060"
"2023-04-20 18:00",9.348,"Working","OW060"
"2023-04-20 19:00",9.348,"Working","OW060"
"2023-04-20 20:00",9.348,"Working","OW060"
"2023-04-20 21:00",9.347,"Working","OW060"
"2023-04-20 22:00",9.347,"Working","OW060"
"2023-04-20 23:00",9.347,"Working","OW060"
"2023-04-21 00:00",9.347,"Working","OW060"
"2023-04-21 01:00",9.346,"Working","OW060"
"2023-04-21 02:00",9.346,"Working","OW060"
"2023-04-21 03:00",9.346,"Working","OW060"
"2023-04-21 04:00",9.346,"Working","OW060"
"2023-04-21 05:00",9.346,"Working","OW060"
"2023-04-21 06:00",9.346,"Working","OW060"
"2023-04-21 07:00",9.347,"Working","OW060"
"2023-04-21 08:00",9.347,"Working","OW060"
"2023-04-21 09:00",9.347,"Working","OW060"
"2023-04-21 10:00",9.347,"Working","OW060"
"2023-04-21 11:00",9.348,"Working","OW060"
"2023-04-21 12:00",9.348,"Working","OW060"
"2023-04-21 13:00",9.348,"Working","OW060"
"2023-04-21 14:00",9.348,"Working","OW060"
"2023-04-21 15:00",9.349,"Working","OW060"
"2023-04-21 16:00",9.349,"Working","OW060"
"2023-04-21 17:00",9.349,"Working","OW060"
"2023-04-21 18:00",9.349,"Working","OW060"
"2023-04-21 19:00",9.35,"Working","OW060"
"2023-04-21 20:00",9.35,"Working","OW060"
"2023-04-21 21:00",9.35,"Working","OW060"
"2023-04-21 22:00",9.35,"Working","OW060"
"2023-04-21 23:00",9.351,"Working","OW060"
"2023-04-22 00:00",9.351,"Working","OW060"
"2023-04-22 01:00",9.351,"Working","OW060"
"2023-04-22 02:00",9.351,"Working","OW060"
"2023-04-22 03:00",9.352,"Working","OW060"
"2023-04-22 04:00",9.352,"Working","OW060"
"2023-04-22 05:00",9.352,"Working","OW060"
"2023-04-22 06:00",9.352,"Working","OW060"
"2023-04-22 07:00",9.351,"Working","OW060"
"2023-04-22 08:00",9.352,"Working","OW060"
"2023-04-22 09:00",9.351,"Working","OW060"
"2023-04-22 10:00",9.352,"Working","OW060"
"2023-04-22 11:00",9.351,"Working","OW060"
"2023-04-22 12:00",9.351,"Working","OW060"
"2023-04-22 13:00",9.35,"Working","OW060"
"2023-04-22 14:00",9.35,"Working","OW060"
"2023-04-22 15:00",9.35,"Working","OW060"
"2023-04-22 16:00",9.35,"Working","OW060"
"2023-04-22 17:00",9.35,"Working","OW060"
"2023-04-22 18:00",9.35,"Working","OW060"
"2023-04-22 19:00",9.349,"Working","OW060"
"2023-04-22 20:00",9.349,"Working","OW060"
"2023-04-22 21:00",9.348,"Working","OW060"
"2023-04-22 22:00",9.348,"Working","OW060"
"2023-04-22 23:00",9.347,"Working","OW060"
"2023-04-23 00:00",9.347,"Working","OW060"
"2023-04-23 01:00",9.347,"Working","OW060"
"2023-04-23 02:00",9.346,"Working","OW060"
"2023-04-23 03:00",9.346,"Working","OW060"
"2023-04-23 04:00",9.345,"Working","OW060"
"2023-04-23 05:00",9.345,"Working","OW060"
"2023-04-23 06:00",9.344,"Working","OW060"
"2023-04-23 07:00",9.343,"Working","OW060"
"2023-04-23 08:00",9.343,"Working","OW060"
"2023-04-23 09:00",9.343,"Working","OW060"
"2023-04-23 10:00",9.342,"Working","OW060"
"2023-04-23 11:00",9.341,"Working","OW060"
"2023-04-23 12:00",9.341,"Working","OW060"
"2023-04-23 13:00",9.34,"Working","OW060"
"2023-04-23 14:00",9.34,"Working","OW060"
"2023-04-23 15:00",9.34,"Working","OW060"
"2023-04-23 16:00",9.339,"Working","OW060"
"2023-04-23 17:00",9.339,"Working","OW060"
"2023-04-23 18:00",9.34,"Working","OW060"
"2023-04-23 19:00",9.339,"Working","OW060"
"2023-04-23 20:00",9.339,"Working","OW060"
"2023-04-23 21:00",9.339,"Working","OW060"
"2023-04-23 22:00",9.339,"Working","OW060"
"2023-04-23 23:00",9.339,"Working","OW060"
"2023-04-24 00:00",9.339,"Working","OW060"
"2023-04-24 01:00",9.339,"Working","OW060"
"2023-04-24 02:00",9.339,"Working","OW060"
"2023-04-24 03:00",9.338,"Working","OW060"
"2023-04-24 04:00",9.339,"Working","OW060"
"2023-04-24 05:00",9.338,"Working","OW060"
"2023-04-24 06:00",9.339,"Working","OW060"
"2023-04-24 07:00",9.338,"Working","OW060"
"2023-04-24 08:00",9.339,"Working","OW060"
"2023-04-24 09:00",9.339,"Working","OW060"
"2023-04-24 10:00",9.339,"Working","OW060"
"2023-04-24 11:00",9.339,"Working","OW060"
"2023-04-24 12:00",9.339,"Working","OW060"
"2023-04-24 13:00",9.339,"Working","OW060"
"2023-04-24 14:00",9.34,"Working","OW060"
"2023-04-24 15:00",9.34,"Working","OW060"
"2023-04-24 16:00",9.341,"Working","OW060"
"2023-04-24 17:00",9.342,"Working","OW060"
"2023-04-24 18:00",9.342,"Working","OW060"
"2023-04-24 19:00",9.343,"Working","OW060"
"2023-04-24 20:00",9.343,"Working","OW060"
"2023-04-24 21:00",9.343,"Working","OW060"
"2023-04-24 22:00",9.344,"Working","OW060"
"2023-04-24 23:00",9.344,"Working","OW060"
"2023-04-25 00:00",9.345,"Working","OW060"
"2023-04-25 01:00",9.345,"Working","OW060"
"2023-04-25 02:00",9.345,"Working","OW060"
"2023-04-25 03:00",9.346,"Working","OW060"
"2023-04-25 04:00",9.346,"Working","OW060"
"2023-04-25 05:00",9.346,"Working","OW060"
"2023-04-25 06:00",9.346,"Working","OW060"
"2023-04-25 07:00",9.347,"Working","OW060"
"2023-04-25 08:00",9.347,"Working","OW060"
"2023-04-25 09:00",9.348,"Working","OW060"
"2023-04-25 10:00",9.348,"Working","OW060"
"2023-04-25 11:00",9.348,"Working","OW060"
"2023-04-25 12:00",9.348,"Working","OW060"
"2023-04-25 13:00",9.349,"Working","OW060"
"2023-04-25 14:00",9.349,"Working","OW060"
"2023-04-25 15:00",9.349,"Working","OW060"
"2023-04-25 16:00",9.349,"Working","OW060"
"2023-04-25 17:00",9.349,"Working","OW060"
"2023-04-25 18:00",9.35,"Working","OW060"
"2023-04-25 19:00",9.35,"Working","OW060"
"2023-04-25 20:00",9.35,"Working","OW060"
"2023-04-25 21:00",9.35,"Working","OW060"
"2023-04-25 22:00",9.351,"Working","OW060"
"2023-04-25 23:00",9.351,"Working","OW060"
"2023-04-26 00:00",9.35,"Working","OW060"
"2023-04-26 01:00",9.351,"Working","OW060"
"2023-04-26 02:00",9.35,"Working","OW060"
"2023-04-26 03:00",9.351,"Working","OW060"
"2023-04-26 04:00",9.351,"Working","OW060"
"2023-04-26 05:00",9.351,"Working","OW060"
"2023-04-26 06:00",9.351,"Working","OW060"
"2023-04-26 07:00",9.351,"Working","OW060"
"2023-04-26 08:00",9.351,"Working","OW060"
"2023-04-26 09:00",9.351,"Working","OW060"
"2023-04-26 10:00",9.351,"Working","OW060"
"2023-04-26 11:00",9.351,"Working","OW060"
"2023-04-26 12:00",9.351,"Working","OW060"
"2023-04-26 13:00",9.352,"Working","OW060"
"2023-04-26 14:00",9.351,"Working","OW060"
"2023-04-26 15:00",9.351,"Working","OW060"
"2023-04-26 16:00",9.351,"Working","OW060"
"2023-04-26 17:00",9.351,"Working","OW060"
"2023-04-26 18:00",9.352,"Working","OW060"
"2023-04-26 19:00",9.351,"Working","OW060"
"2023-04-26 20:00",9.351,"Working","OW060"
"2023-04-26 21:00",9.351,"Working","OW060"
"2023-04-26 22:00",9.351,"Working","OW060"
"2023-04-26 23:00",9.351,"Working","OW060"
"2023-04-27 00:00",9.351,"Working","OW060"
"2023-04-27 01:00",9.351,"Working","OW060"
"2023-04-27 02:00",9.351,"Working","OW060"
"2023-04-27 03:00",9.351,"Working","OW060"
"2023-04-27 04:00",9.351,"Working","OW060"
"2023-04-27 05:00",9.351,"Working","OW060"
"2023-04-27 06:00",9.351,"Working","OW060"
"2023-04-27 07:00",9.351,"Working","OW060"
"2023-04-27 08:00",9.352,"Working","OW060"
"2023-04-27 09:00",9.352,"Working","OW060"
"2023-04-27 10:00",9.352,"Working","OW060"
"2023-04-27 11:00",9.352,"Working","OW060"
"2023-04-27 12:00",9.352,"Working","OW060"
"2023-04-27 13:00",9.353,"Working","OW060"
"2023-04-27 14:00",9.353,"Working","OW060"
"2023-04-27 15:00",9.353,"Working","OW060"
"2023-04-27 16:00",9.353,"Working","OW060"
"2023-04-27 17:00",9.354,"Working","OW060"
"2023-04-27 18:00",9.354,"Working","OW060"
"2023-04-27 19:00",9.354,"Working","OW060"
"2023-04-27 20:00",9.354,"Working","OW060"
"2023-04-27 21:00",9.354,"Working","OW060"
"2023-04-27 22:00",9.354,"Working","OW060"
"2023-04-27 23:00",9.354,"Working","OW060"
"2023-04-28 00:00",9.354,"Working","OW060"
"2023-04-28 01:00",9.353,"Working","OW060"
"2023-04-28 02:00",9.353,"Working","OW060"
"2023-04-28 03:00",9.354,"Working","OW060"
"2023-04-28 04:00",9.353,"Working","OW060"
"2023-04-28 05:00",9.353,"Working","OW060"
"2023-04-28 06:00",9.353,"Working","OW060"
"2023-04-28 07:00",9.353,"Working","OW060"
"2023-04-28 08:00",9.353,"Working","OW060"
"2023-04-28 09:00",9.353,"Working","OW060"
"2023-04-28 10:00",9.353,"Working","OW060"
"2023-04-28 11:00",9.353,"Working","OW060"
"2023-04-28 12:00",9.353,"Working","OW060"
"2023-04-28 13:00",9.352,"Working","OW060"
"2023-04-28 14:00",9.352,"Working","OW060"
"2023-04-28 15:00",9.353,"Working","OW060"
"2023-04-28 16:00",9.352,"Working","OW060"
"2023-04-28 17:00",9.352,"Working","OW060"
"2023-04-28 18:00",9.352,"Working","OW060"
"2023-04-28 19:00",9.352,"Working","OW060"
"2023-04-28 20:00",9.352,"Working","OW060"
"2023-04-28 21:00",9.352,"Working","OW060"
"2023-04-28 22:00",9.351,"Working","OW060"
"2023-04-28 23:00",9.351,"Working","OW060"
"2023-04-29 00:00",9.35,"Working","OW060"
"2023-04-29 01:00",9.35,"Working","OW060"
"2023-04-29 02:00",9.35,"Working","OW060"
"2023-04-29 03:00",9.35,"Working","OW060"
"2023-04-29 04:00",9.349,"Working","OW060"
"2023-04-29 05:00",9.349,"Working","OW060"
"2023-04-29 06:00",9.349,"Working","OW060"
"2023-04-29 07:00",9.349,"Working","OW060"
"2023-04-29 08:00",9.349,"Working","OW060"
"2023-04-29 09:00",9.349,"Working","OW060"
"2023-04-29 10:00",9.349,"Working","OW060"
"2023-04-29 11:00",9.349,"Working","OW060"
"2023-04-29 12:00",9.349,"Working","OW060"
"2023-04-29 13:00",9.349,"Working","OW060"
"2023-04-29 14:00",9.35,"Working","OW060"
"2023-04-29 15:00",9.35,"Working","OW060"
"2023-04-29 16:00",9.35,"Working","OW060"
"2023-04-29 17:00",9.35,"Working","OW060"
"2023-04-29 18:00",9.35,"Working","OW060"
"2023-04-29 19:00",9.35,"Working","OW060"
"2023-04-29 20:00",9.351,"Working","OW060"
"2023-04-29 21:00",9.351,"Working","OW060"
"2023-04-29 22:00",9.351,"Working","OW060"
"2023-04-29 23:00",9.351,"Working","OW060"
"2023-04-30 00:00",9.35,"Working","OW060"
"2023-04-30 01:00",9.35,"Working","OW060"
"2023-04-30 02:00",9.35,"Working","OW060"
"2023-04-30 03:00",9.35,"Working","OW060"
"2023-04-30 04:00",9.35,"Working","OW060"
"2023-04-30 05:00",9.35,"Working","OW060"
"2023-04-30 06:00",9.35,"Working","OW060"
"2023-04-30 07:00",9.351,"Working","OW060"
"2023-04-30 08:00",9.35,"Working","OW060"
"2023-04-30 09:00",9.35,"Working","OW060"
"2023-04-30 10:00",9.35,"Working","OW060"
"2023-04-30 11:00",9.35,"Working","OW060"
"2023-04-30 12:00",9.35,"Working","OW060"
"2023-04-30 13:00",9.351,"Working","OW060"
"2023-04-30 14:00",9.351,"Working","OW060"
"2023-04-30 15:00",9.351,"Working","OW060"
"2023-04-30 16:00",9.351,"Working","OW060"
"2023-04-30 17:00",9.351,"Working","OW060"
"2023-04-30 18:00",9.352,"Working","OW060"
"2023-04-30 19:00",9.352,"Working","OW060"
"2023-04-30 20:00",9.351,"Working","OW060"
"2023-04-30 21:00",9.352,"Working","OW060"
"2023-04-30 22:00",9.352,"Working","OW060"
"2023-04-30 23:00",9.352,"Working","OW060"
"2023-05-01 00:00",9.352,"Working","OW060"
"2023-05-01 01:00",9.352,"Working","OW060"
"2023-05-01 02:00",9.352,"Working","OW060"
"2023-05-01 03:00",9.352,"Working","OW060"
"2023-05-01 04:00",9.353,"Working","OW060"
"2023-05-01 05:00",9.353,"Working","OW060"
"2023-05-01 06:00",9.353,"Working","OW060"
"2023-05-01 07:00",9.354,"Working","OW060"
"2023-05-01 08:00",9.354,"Working","OW060"
"2023-05-01 09:00",9.354,"Working","OW060"
"2023-05-01 10:00",9.354,"Working","OW060"
"2023-05-01 11:00",9.355,"Working","OW060"
"2023-05-01 12:00",9.355,"Working","OW060"
"2023-05-01 13:00",9.355,"Working","OW060"
"2023-05-01 14:00",9.355,"Working","OW060"
"2023-05-01 15:00",9.355,"Working","OW060"
"2023-05-01 16:00",9.355,"Working","OW060"
"2023-05-01 17:00",9.355,"Working","OW060"
"2023-05-01 18:00",9.355,"Working","OW060"
"2023-05-01 19:00",9.355,"Working","OW060"
"2023-05-01 20:00",9.355,"Working","OW060"
"2023-05-01 21:00",9.355,"Working","OW060"
"2023-05-01 22:00",9.356,"Working","OW060"
"2023-05-01 23:00",9.356,"Working","OW060"
"2023-05-02 00:00",9.355,"Working","OW060"
"2023-05-02 01:00",9.356,"Working","OW060"
"2023-05-02 02:00",9.356,"Working","OW060"
"2023-05-02 03:00",9.356,"Working","OW060"
"2023-05-02 04:00",9.356,"Working","OW060"
"2023-05-02 05:00",9.356,"Working","OW060"
"2023-05-02 06:00",9.356,"Working","OW060"
"2023-05-02 07:00",9.356,"Working","OW060"
"2023-05-02 08:00",9.357,"Working","OW060"
"2023-05-02 09:00",9.356,"Working","OW060"
"2023-05-02 10:00",9.357,"Working","OW060"
"2023-05-02 11:00",9.357,"Working","OW060"
"2023-05-02 12:00",9.357,"Working","OW060"
"2023-05-02 13:00",9.357,"Working","OW060"
"2023-05-02 14:00",9.357,"Working","OW060"
"2023-05-02 15:00",9.357,"Working","OW060"
"2023-05-02 16:00",9.357,"Working","OW060"
"2023-05-02 17:00",9.358,"Working","OW060"
"2023-05-02 18:00",9.357,"Working","OW060"
"2023-05-02 19:00",9.357,"Working","OW060"
"2023-05-02 20:00",9.357,"Working","OW060"
"2023-05-02 21:00",9.356,"Working","OW060"
"2023-05-02 22:00",9.357,"Working","OW060"
"2023-05-02 23:00",9.357,"Working","OW060"
"2023-05-03 00:00",9.356,"Working","OW060"
"2023-05-03 01:00",9.357,"Working","OW060"
"2023-05-03 02:00",9.356,"Working","OW060"
"2023-05-03 03:00",9.356,"Working","OW060"
"2023-05-03 04:00",9.356,"Working","OW060"
"2023-05-03 05:00",9.357,"Working","OW060"
"2023-05-03 06:00",9.357,"Working","OW060"
"2023-05-03 07:00",9.358,"Working","OW060"
"2023-05-03 08:00",9.358,"Working","OW060"
"2023-05-03 09:00",9.358,"Working","OW060"
"2023-05-03 10:00",9.359,"Working","OW060"
"2023-05-03 11:00",9.359,"Working","OW060"
"2023-05-03 12:00",9.36,"Working","OW060"
"2023-05-03 13:00",9.36,"Working","OW060"
"2023-05-03 14:00",9.36,"Working","OW060"
"2023-05-03 15:00",9.361,"Working","OW060"
"2023-05-03 16:00",9.361,"Working","OW060"
"2023-05-03 17:00",9.36,"Working","OW060"
"2023-05-03 18:00",9.362,"Working","OW060"
"2023-05-03 19:00",9.362,"Working","OW060"
"2023-05-03 20:00",9.361,"Working","OW060"
"2023-05-03 21:00",9.361,"Working","OW060"
"2023-05-03 22:00",9.361,"Working","OW060"
"2023-05-03 23:00",9.361,"Working","OW060"
"2023-05-04 00:00",9.36,"Working","OW060"
"2023-05-04 01:00",9.36,"Working","OW060"
"2023-05-04 02:00",9.361,"Working","OW060"
"2023-05-04 03:00",9.36,"Working","OW060"
"2023-05-04 04:00",9.36,"Working","OW060"
"2023-05-04 05:00",9.361,"Working","OW060"
"2023-05-04 06:00",9.361,"Working","OW060"
"2023-05-04 07:00",9.361,"Working","OW060"
"2023-05-04 08:00",9.362,"Working","OW060"
"2023-05-05 09:00",9.365,"Working","OW060"
"2023-05-05 10:00",9.365,"Working","OW060"
"2023-05-05 11:00",9.366,"Working","OW060"
"2023-05-05 12:00",9.366,"Working","OW060"
"2023-05-05 13:00",9.366,"Working","OW060"
"2023-05-05 14:00",9.367,"Working","OW060"
"2023-05-05 15:00",9.366,"Working","OW060"
"2023-05-05 16:00",9.367,"Working","OW060"
"2023-05-05 17:00",9.368,"Working","OW060"
"2023-05-05 18:00",9.367,"Working","OW060"
"2023-05-05 19:00",9.368,"Working","OW060"
"2023-05-05 20:00",9.368,"Working","OW060"
"2023-05-05 21:00",9.368,"Working","OW060"
"2023-05-05 22:00",9.369,"Working","OW060"
"2023-05-05 23:00",9.369,"Working","OW060"
"2023-05-06 00:00",9.369,"Working","OW060"
"2023-05-06 01:00",9.369,"Working","OW060"
"2023-05-06 02:00",9.37,"Working","OW060"
"2023-05-06 03:00",9.37,"Working","OW060"
"2023-05-06 04:00",9.37,"Working","OW060"
"2023-05-06 05:00",9.371,"Working","OW060"
"2023-05-06 06:00",9.371,"Working","OW060"
"2023-05-06 07:00",9.371,"Working","OW060"
"2023-05-06 08:00",9.372,"Working","OW060"
"2023-05-06 09:00",9.372,"Working","OW060"
"2023-05-06 10:00",9.372,"Working","OW060"
"2023-05-06 11:00",9.372,"Working","OW060"
"2023-05-06 12:00",9.372,"Working","OW060"
"2023-05-06 13:00",9.372,"Working","OW060"
"2023-05-06 14:00",9.373,"Working","OW060"
"2023-05-06 15:00",9.373,"Working","OW060"
"2023-05-06 16:00",9.373,"Working","OW060"
"2023-05-06 17:00",9.373,"Working","OW060"
"2023-05-06 18:00",9.374,"Working","OW060"
"2023-05-06 19:00",9.374,"Working","OW060"
"2023-05-06 20:00",9.374,"Working","OW060"
"2023-05-06 21:00",9.374,"Working","OW060"
"2023-05-06 22:00",9.374,"Working","OW060"
"2023-05-06 23:00",9.375,"Working","OW060"
"2023-05-07 00:00",9.375,"Working","OW060"
"2023-05-07 01:00",9.375,"Working","OW060"
"2023-05-07 02:00",9.375,"Working","OW060"
"2023-05-07 03:00",9.375,"Working","OW060"
"2023-05-07 04:00",9.376,"Working","OW060"
"2023-05-07 05:00",9.375,"Working","OW060"
"2023-05-07 06:00",9.376,"Working","OW060"
"2023-05-07 07:00",9.376,"Working","OW060"
"2023-05-07 08:00",9.377,"Working","OW060"
"2023-05-07 09:00",9.376,"Working","OW060"
"2023-05-07 10:00",9.377,"Working","OW060"
"2023-05-07 11:00",9.377,"Working","OW060"
"2023-05-07 12:00",9.377,"Working","OW060"
"2023-05-07 13:00",9.378,"Working","OW060"
"2023-05-07 14:00",9.378,"Working","OW060"
"2023-05-07 15:00",9.378,"Working","OW060"
"2023-05-07 16:00",9.378,"Working","OW060"
"2023-05-07 17:00",9.379,"Working","OW060"
"2023-05-07 18:00",9.379,"Working","OW060"
"2023-05-07 19:00",9.379,"Working","OW060"
"2023-05-07 20:00",9.379,"Working","OW060"
"2023-05-07 21:00",9.379,"Working","OW060"
"2023-05-07 22:00",9.38,"Working","OW060"
"2023-05-07 23:00",9.38,"Working","OW060"
"2023-05-08 00:00",9.38,"Working","OW060"
"2023-05-08 01:00",9.38,"Working","OW060"
"2023-05-08 02:00",9.381,"Working","OW060"
"2023-05-08 03:00",9.38,"Working","OW060"
"2023-05-08 04:00",9.381,"Working","OW060"
"2023-05-08 05:00",9.381,"Working","OW060"
"2023-05-08 06:00",9.381,"Working","OW060"
"2023-05-08 07:00",9.381,"Working","OW060"
"2023-05-08 08:00",9.381,"Working","OW060"
"2023-05-08 09:00",9.381,"Working","OW060"
"2023-05-08 10:00",9.382,"Working","OW060"
"2023-05-08 11:00",9.381,"Working","OW060"
"2023-05-08 12:00",9.382,"Working","OW060"
"2023-05-08 13:00",9.382,"Working","OW060"
"2023-05-08 14:00",9.381,"Working","OW060"
"2023-05-08 15:00",9.382,"Working","OW060"
"2023-05-08 16:00",9.382,"Working","OW060"
"2023-05-08 17:00",9.382,"Working","OW060"
"2023-05-08 18:00",9.382,"Working","OW060"
"2023-05-08 19:00",9.383,"Working","OW060"
"2023-05-08 20:00",9.382,"Working","OW060"
"2023-05-08 21:00",9.382,"Working","OW060"
"2023-05-08 22:00",9.383,"Working","OW060"
"2023-05-08 23:00",9.383,"Working","OW060"
"2023-05-09 00:00",9.383,"Working","OW060"
"2023-05-09 01:00",9.383,"Working","OW060"
"2023-05-09 02:00",9.383,"Working","OW060"
"2023-05-09 03:00",9.382,"Working","OW060"
"2023-05-09 04:00",9.383,"Working","OW060"
"2023-05-09 05:00",9.383,"Working","OW060"
"2023-05-09 06:00",9.384,"Working","OW060"
"2023-05-09 07:00",9.384,"Working","OW060"
"2023-05-09 08:00",9.384,"Working","OW060"
"2023-05-09 09:00",9.385,"Working","OW060"
"2023-05-09 10:00",9.385,"Working","OW060"
"2023-05-09 11:00",9.384,"Working","OW060"
"2023-05-09 12:00",9.385,"Working","OW060"
"2023-05-09 13:00",9.386,"Working","OW060"
"2023-05-09 14:00",9.385,"Working","OW060"
"2023-05-09 15:00",9.386,"Working","OW060"
"2023-05-09 16:00",9.387,"Working","OW060"
"2023-05-09 17:00",9.387,"Working","OW060"
"2023-05-09 18:00",9.387,"Working","OW060"
"2023-05-09 19:00",9.387,"Working","OW060"
"2023-05-09 20:00",9.387,"Working","OW060"
"2023-05-09 21:00",9.388,"Working","OW060"
"2023-05-09 22:00",9.387,"Working","OW060"
"2023-05-09 23:00",9.388,"Working","OW060"
"2023-05-10 00:00",9.388,"Working","OW060"
"2023-05-10 01:00",9.388,"Working","OW060"
"2023-05-10 02:00",9.388,"Working","OW060"
"2023-05-10 03:00",9.389,"Working","OW060"
"2023-05-10 04:00",9.389,"Working","OW060"
"2023-05-10 05:00",9.389,"Working","OW060"
"2023-05-10 06:00",9.389,"Working","OW060"
"2023-05-10 07:00",9.389,"Working","OW060"
"2023-05-10 08:00",9.39,"Working","OW060"
"2023-05-10 09:00",9.39,"Working","OW060"
"2023-05-10 10:00",9.39,"Working","OW060"
"2023-05-10 11:00",9.39,"Working","OW060"
"2023-05-10 12:00",9.39,"Working","OW060"
"2023-05-10 13:00",9.39,"Working","OW060"
"2023-05-10 14:00",9.39,"Working","OW060"
"2023-05-10 15:00",9.39,"Working","OW060"
"2023-05-10 16:00",9.391,"Working","OW060"
"2023-05-10 17:00",9.391,"Working","OW060"